Content
SEND FEEDBACK

Daily
Averages
Monthly
Summary
United States of America

RUGBY, NORTH DAKOTA


Home > North America > United States > North Dakota
Elevation: 1546 feet     Latitude: 48 21N     Longitude: 100 00W

WEATHER
 
SELECT A DAY
Number of Records: 96,117;   Date Range: 11/13/98 - 12/16/14
 
SHARE

PRINT THIS DATA

[ ← Previous Day ]
WEATHER ALMANAC - AUGUST 8, 2014
[ Next Day → ]
[ °C ]   °F
Weather ElementAverageHighLow
Temperature71 °F80.6 °F (1:55 pm)60.8 °F (2:35 am)
Dewpoint65.1 °F68 °F (9:55 am)60.8 °F (12:35 am)
Humidity83.3 %100 % (2:15 am)61 % (12:15 pm)
Barometer29.98 in30.02 in (8:15 pm)29.95 in (4:15 pm)
Wind Speed7.2 mph12.7 mph (11:15 am)
Wind Gust20.7 mph (12:55 pm)
Weather ElementAverage
Visibility9.8 mi
Wind DirectionSSE (171.6 °)

Weather ElementTotal
Precipitation---
Cooling Degree Days5.7 (Base 65)
Growing Degree Days20.7 (Base 50)
Averaged from 70 records on August 8, 2014
WEATHER CONDITIONS BREAKOUT
WIND DIRECTION BREAKOUT
WEATHER BY HOUR - AUGUST 8, 2014
[ °C ]   °F
Local TimeTemperatureDewpointHumidityBarometerVisibilityWind DirectionWind SpeedGust SpeedPrecipitationEventsConditions
12:15 AM64.4 °F62.6 °F94 %29.96 in10.0 miSouth (170°)4.6 mphClear
12:35 AM64.4 °F62.6 °F94 %29.96 in10.0 miSSE (160°)6.9 mphClear
12:55 AM62.6 °F62.6 °F100 %29.95 in10.0 miSouth (170°)6.9 mphClear
1:15 AM62.6 °F62.6 °F100 %29.96 in10.0 miSouth (190°)3.5 mphClear
1:35 AM62.6 °F62.6 °F100 %29.96 in10.0 miSouth (170°)5.8 mphClear
1:55 AM62.6 °F62.6 °F100 %29.96 in10.0 miSouth (170°)5.8 mphClear
2:15 AM62.6 °F62.6 °F100 %29.97 in10.0 miSouth (170°)3.5 mphClear
2:35 AM62.6 °F62.6 °F100 %29.97 in10.0 miSSE (160°)6.9 mphClear
2:55 AM62.6 °F62.6 °F100 %29.96 in10.0 miSouth (170°)5.8 mphClear
3:15 AM62.6 °F62.6 °F100 %29.96 in10.0 miSouth (170°)5.8 mphClear
3:35 AM62.6 °F62.6 °F100 %29.96 in10.0 miSouth (170°)3.5 mphClear
3:55 AM62.6 °F62.6 °F100 %29.96 in10.0 miSSE (160°)5.8 mphClear
4:15 AM60.8 °F60.8 °F100 %29.97 in10.0 miSSE (160°)3.5 mphClear
4:35 AM60.8 °F60.8 °F100 %29.98 in10.0 miSSE (150°)4.6 mphClear
4:55 AM60.8 °F60.8 °F100 %29.98 in10.0 miSSE (150°)5.8 mphClear
5:15 AM60.8 °F60.8 °F100 %29.98 in10.0 miSSE (160°)5.8 mphClear
5:35 AM60.8 °F60.8 °F100 %29.99 in9.0 miSSE (160°)5.8 mphClear
5:55 AM60.8 °F60.8 °F100 %30.00 in8.0 miSE (130°)4.6 mphClear
6:15 AM60.8 °F60.8 °F100 %30.00 in8.0 miSSE (150°)4.6 mphClear
6:35 AM60.8 °F60.8 °F100 %30.00 in7.0 miSouth (170°)6.9 mphClear
6:55 AM62.6 °F62.6 °F100 %30.00 in8.0 miSouth (170°)4.6 mphClear
7:15 AM62.6 °F62.6 °F100 %30.00 in8.0 miSSE (160°)5.8 mphClear
7:35 AM62.6 °F62.6 °F100 %30.01 in8.0 miSSE (160°)4.6 mphClear
7:55 AM64.4 °F64.4 °F100 %30.01 in9.0 miSE (140°)3.5 mphClear
8:15 AM64.4 °F64.4 °F100 %30.00 in10.0 miSouth (180°)4.6 mphClear
8:35 AM66.2 °F66.2 °F100 %30.00 in10.0 miSouth (170°)3.5 mphClear
8:55 AM68.0 °F66.2 °F94 %30.01 in10.0 miSouth (190°)4.6 mphClear
9:15 AM68.0 °F66.2 °F94 %30.01 in10.0 miSouth (190°)4.6 mphClear
9:35 AM71.6 °F66.2 °F83 %30.02 in10.0 miSSW (210°)3.5 mphClear
9:55 AM71.6 °F68.0 °F88 %30.01 in10.0 miSouth (180°)4.6 mphClear
10:15 AM71.6 °F68.0 °F88 %30.01 in10.0 miSouth (180°)5.8 mphClear
10:35 AM73.4 °F68.0 °F83 %30.01 in10.0 miSSE (150°)4.6 mphClear
10:55 AM73.4 °F68.0 °F83 %30.00 in10.0 miSouth (190°)4.6 mphClear
11:15 AM75.2 °F68.0 °F78 %30.00 in10.0 miSouth (170°)5.8 mphClear
11:35 AM77.0 °F68.0 °F74 %30.00 in10.0 miSouth (180°)5.8 mphClear
11:55 AM77.0 °F68.0 °F74 %30.00 in10.0 miSSW (200°)8.1 mphClear
12:15 PM77.0 °F68.0 °F74 %30.00 in10.0 miSouth (180°)6.9 mphClear
12:35 PM77.0 °F68.0 °F74 %30.00 in10.0 miSouth (190°)9.2 mphPartly Cloudy
12:55 PM78.8 °F68.0 °F69 %30.00 in10.0 miSouth (190°)9.2 mphScattered Clouds
1:15 PM78.8 °F66.2 °F65 %30.00 in10.0 miSouth (180°)10.4 mphScattered Clouds
1:35 PM78.8 °F66.2 °F65 %29.99 in10.0 miSSE (160°)12.7 mph17.3 mphMostly Cloudy
1:55 PM80.6 °F66.2 °F61 %29.99 in10.0 miSSE (160°)11.5 mph18.4 mphPartly Cloudy
2:15 PM80.6 °F66.2 °F61 %29.99 in10.0 miSSE (160°)12.7 mphPartly Cloudy
2:35 PM80.6 °F68.0 °F65 %29.99 in10.0 miSSE (160°)12.7 mph19.6 mphPartly Cloudy
2:55 PM80.6 °F68.0 °F65 %29.98 in10.0 miSouth (190°)11.5 mph20.7 mphPartly Cloudy
3:35 PM80.6 °F66.2 °F61 %29.98 in10.0 miSouth (180°)11.5 mph19.6 mphClear
3:55 PM80.6 °F66.2 °F61 %29.98 in10.0 miSouth (170°)11.5 mphClear
4:15 PM80.6 °F66.2 °F61 %29.98 in10.0 miSouth (180°)9.2 mph17.3 mphClear
4:35 PM80.6 °F66.2 °F61 %29.98 in10.0 miSouth (180°)11.5 mphPartly Cloudy
4:55 PM80.6 °F68.0 °F65 %29.97 in10.0 miSSW (210°)12.7 mph16.1 mphScattered Clouds
5:15 PM80.6 °F66.2 °F61 %29.97 in10.0 miSSW (210°)12.7 mphPartly Cloudy
5:35 PM80.6 °F66.2 °F61 %29.97 in10.0 miSSW (210°)10.4 mph17.3 mphClear
5:55 PM80.6 °F66.2 °F61 %29.97 in10.0 miSSW (200°)9.2 mph17.3 mphClear
6:15 PM80.6 °F66.2 °F61 %29.97 in10.0 miSouth (190°)8.1 mphClear
6:35 PM80.6 °F66.2 °F61 %29.97 in10.0 miSouth (190°)6.9 mphClear
6:55 PM80.6 °F66.2 °F61 %29.97 in10.0 miSouth (170°)9.2 mphPartly Cloudy
7:15 PM78.8 °F68.0 °F69 %29.96 in10.0 miSouth (170°)8.1 mphPartly Cloudy
7:35 PM77.0 °F68.0 °F74 %29.96 in10.0 miSSE (160°)6.9 mphClear
7:55 PM77.0 °F68.0 °F74 %29.96 in10.0 miSouth (170°)6.9 mphClear
8:15 PM77.0 °F66.2 °F69 %29.96 in10.0 miSSE (160°)8.1 mphClear
8:35 PM75.2 °F66.2 °F73 %29.96 in10.0 miSSE (160°)10.4 mphClear
8:55 PM73.4 °F66.2 °F78 %29.97 in10.0 miSSE (160°)9.2 mphClear
9:15 PM73.4 °F66.2 °F78 %29.97 in10.0 miSSE (160°)8.1 mphClear
9:35 PM71.6 °F66.2 °F83 %29.97 in10.0 miSSE (160°)8.1 mphClear
9:55 PM71.6 °F66.2 °F83 %29.97 in10.0 miSSE (160°)6.9 mphClear
10:15 PM71.6 °F64.4 °F78 %29.98 in10.0 miSSE (160°)8.1 mphClear
10:35 PM69.8 °F66.2 °F88 %29.99 in10.0 miSSE (160°)6.9 mphClear
10:55 PM68.0 °F66.2 °F94 %30.00 in10.0 miSSE (160°)8.1 mphClear
11:15 PM68.0 °F66.2 °F94 %30.00 in10.0 miSSE (160°)8.1 mphClear
11:35 PM68.0 °F66.2 °F94 %30.01 in10.0 miSouth (170°)6.9 mphClear
Hourly data recorded from KRUG, located miles away from Rugby, North Dakota







STORIES FROM OUR PARTNERS